Location: Sternwarte auf dem Internationalen Platz Vogelsang IP
(50.5721°N, 6.4398°E)
Time: 04:50:40
(UTC+01:00)

Transit 2A Rocket - Pass Details

Date: 18 December 2025
Orbit: 581 x 903 km, 66.7° (Epoch: 13 January)

Event Time Altitude Azimuth Distance (km) Brightness Sun altitude
Rises 09:30:12 0° 247° (WSW) 3,378 8.1 6.0°
Reaches altitude 10° 09:32:47 10° 256° (WSW) 2,487 7.4 6.2°
Maximum altitude 09:38:10 37° 323° (NW) 1,346 5.9 6.8°
Drops below altitude 10° 09:43:45 10° 30° (NNE) 2,590 7.5 7.3°
Sets 09:46:31 0° 39° (NE) 3,535 8.3 7.6°
